Flight Track Log - Related Links

Times and Time Zones

All times are in EST time to prevent confusion due to time zone crossing. See the AFL150 flight status page for this flight to view local times or setup timezone preferences in your user account.

Time Position Orientation Groundspeed Altitude Reporting Facility
EST Latitude Longitude Course Direction KTS MPH feet Rate Location/Type
Mon 04:23:00 AM 56.1904 37.1324 318° Northwest  Level FlightAware Approximate
Mon 04:24:00 AM 56.2791 36.9890 318° Northwest  Level FlightAware Approximate
Mon 04:25:00 AM 56.3677 36.8449 318° Northwest  Level FlightAware Approximate
Mon 04:26:00 AM 56.4562 36.7001 318° Northwest  Level FlightAware Approximate
Mon 04:27:00 AM 56.5445 36.5547 318° Northwest  Level FlightAware Approximate
Mon 04:28:00 AM 56.6326 36.4086 318° Northwest  Level FlightAware Approximate
Mon 04:29:00 AM 56.7205 36.2617 318° Northwest  Level FlightAware Approximate
Mon 04:30:00 AM 56.8083 36.1143 317° Northwest  Level FlightAware Approximate
Mon 04:31:00 AM 56.8958 35.9661 317° Northwest  Level FlightAware Approximate
Mon 04:32:00 AM 56.9832 35.8172 317° Northwest  Level FlightAware Approximate
Mon 04:33:00 AM 57.0705 35.6676 317° Northwest  Level FlightAware Approximate
Mon 04:34:00 AM 57.1575 35.5174 317° Northwest  Level FlightAware Approximate
Mon 04:35:00 AM 57.2444 35.3664 317° Northwest  Level FlightAware Approximate
Mon 04:36:00 AM 57.3311 35.2147 317° Northwest  Level FlightAware Approximate
Mon 04:37:00 AM 57.4176 35.0622 317° Northwest  Level FlightAware Approximate
Mon 04:38:00 AM 57.5039 34.9091 316° Northwest  Level FlightAware Approximate
Mon 04:39:00 AM 57.5900 34.7552 316° Northwest  Level FlightAware Approximate
Mon 04:40:00 AM 57.6760 34.6007 316° Northwest  Level FlightAware Approximate
Mon 04:41:00 AM 57.7617 34.4453 316° Northwest  Level FlightAware Approximate
Mon 04:42:00 AM 57.7953 34.3808 315° West  Level FlightAware Approximate
Mon 04:43:00 AM 57.8790 34.2211 315° West  Level FlightAware Approximate
Mon 04:44:00 AM 57.9625 34.0607 315° West  Level FlightAware Approximate
Mon 04:45:00 AM 58.0459 33.8996 314° West  Level FlightAware Approximate
Mon 04:46:00 AM 58.1290 33.7376 314° West  Level FlightAware Approximate
Mon 04:47:00 AM 58.2119 33.5750 314° West  Level FlightAware Approximate
Mon 04:48:00 AM 58.2946 33.4115 314° West  Level FlightAware Approximate
Mon 04:49:00 AM 58.3771 33.2473 314° West  Level FlightAware Approximate
Mon 04:50:00 AM 58.4594 33.0824 314° West  Level FlightAware Approximate
Mon 04:50:35 AM 56.4692 32.1329 314° West 454 522 34,000  Level FlightAware ADS-B
Mon 04:51:37 AM 56.4883 31.9028 279° West 455 524 34,000  Level FlightAware ADS-B
Mon 04:52:36 AM 56.5063 31.6806 278° West 457 526 34,000  Level FlightAware ADS-B
Mon 04:53:35 AM 56.5236 31.4628 278° West 458 527 34,000  Level FlightAware ADS-B
Mon 04:54:37 AM 56.5480 31.2264 281° West 458 527 34,000  Level FlightAware ADS-B
Mon 04:55:37 AM 56.5955 31.0135 292° West 460 529 34,000  Level FlightAware ADS-B
Mon 04:56:36 AM 56.6668 30.8238 304° West 464 534 34,000  Level FlightAware ADS-B
Mon 04:57:37 AM 56.7468 30.6387 308° West 464 534 34,000  Level FlightAware ADS-B
Mon 04:58:37 AM 56.8164 30.4552 305° West 465 535 34,000  Level FlightAware ADS-B
Mon 04:59:36 AM 56.8871 30.2647 304° West 465 535 34,000  Level FlightAware ADS-B
Mon 05:00:36 AM 56.9631 30.0574 304° West 467 537 34,000  Level FlightAware ADS-B
Mon 05:01:37 AM 57.0353 29.8583 304° West 468 539 34,000  Level FlightAware ADS-B
Mon 05:02:36 AM 57.1016 29.6745 304° West 470 541 34,000  Level FlightAware ADS-B
Mon 05:03:37 AM 57.1776 29.4616 303° West 471 542 34,000  Level FlightAware ADS-B
Mon 05:04:37 AM 57.2493 29.2592 303° West 473 544 34,000  Level FlightAware ADS-B
Mon 05:05:36 AM 57.3194 29.0600 303° West 474 545 34,000  Level FlightAware ADS-B
Mon 05:06:37 AM 57.3921 28.8517 303° West 475 547 34,000  Level FlightAware ADS-B
Mon 05:07:37 AM 57.4625 28.6483 303° West 475 547 34,000  Level FlightAware ADS-B
Mon 05:08:36 AM 57.5328 28.4432 303° West 476 548 34,000  Level FlightAware ADS-B
Mon 05:09:36 AM 57.6036 28.2349 302° West 478 550 34,000  Level FlightAware ADS-B
Mon 05:10:37 AM 57.6748 28.0236 302° West 479 551 34,000  Level FlightAware ADS-B
Mon 05:11:37 AM 57.7454 27.8125 302° West 481 554 34,000  Level FlightAware ADS-B
Mon 05:12:37 AM 57.8156 27.6007 302° West 482 555 34,000  Level FlightAware ADS-B
Mon 05:13:37 AM 57.8683 27.3789 294° West 479 551 34,000  Level FlightAware ADS-B
Mon 05:14:36 AM 57.9145 27.1455 291° West 481 554 34,000  Level FlightAware ADS-B
Mon 05:15:36 AM 57.9622 26.9076 291° West 484 557 34,000  Level FlightAware ADS-B
Mon 05:16:37 AM 58.0098 26.6680 291° West 484 557 34,000  Level FlightAware ADS-B
Mon 05:17:37 AM 58.0558 26.4311 290° West 483 556 34,000  Level FlightAware ADS-B
Mon 05:18:37 AM 58.0983 26.2016 289° West 483 556 34,000  Level FlightAware ADS-B
Mon 05:19:37 AM 58.1418 25.9536 288° West 485 558 34,000  Level FlightAware ADS-B
Mon 05:20:37 AM 58.1836 25.7131 288° West 483 556 34,000  Level FlightAware ADS-B
Mon 05:21:37 AM 58.2243 25.4767 288° West 479 551 34,000  Level FlightAware ADS-B
Mon 05:22:36 AM 58.2642 25.2424 288° West 477 549 34,000  Level FlightAware ADS-B
Mon 05:23:36 AM 58.3050 24.9990 288° West 476 548 34,000  Level FlightAware ADS-B
Mon 05:24:37 AM 58.3449 24.7570 288° West 476 548 34,000  Level FlightAware ADS-B
Mon 05:25:34 AM 58.3758 24.5682 287° West 476 548 34,000  Level FlightAware ADS-B
Mon 05:26:12 AM 58.3973 24.4352 287° West 477 549 34,000  Level FlightAware ADS-B
Mon 05:37:23 AM 58.8026 21.7107 294° West 467 537 34,000  Level FlightAware ADS-B
Mon 05:38:03 AM 58.8250 21.5461 285° West 468 539 34,000  Level FlightAware ADS-B
Mon 05:38:44 AM 58.8518 21.3816 288° West 469 540 34,000  Level FlightAware ADS-B
Mon 05:39:23 AM 58.8778 21.2341 289° West 468 539 34,000  Level FlightAware ADS-B
Mon 05:40:00 AM 58.9042 21.0780 288° West 467 537 34,000  Level FlightAware ADS-B
Mon 05:40:16 AM 58.9125 21.0281 288° West 466 536 34,000  Level FlightAware ADS-B
Mon 05:40:36 AM 58.9267 20.9428 288° West 465 535 34,000  Level FlightAware ADS-B
Mon 05:41:06 AM 58.9476 20.8156 288° West 460 529 34,000  Level FlightAware ADS-B
Mon 05:41:38 AM 58.9685 20.6888 288° West 461 531 34,000  Level FlightAware ADS-B
Mon 05:42:22 AM 58.9685 20.6888 288° West 460 529 34,000  Level FlightAware ADS-B
Mon 05:43:03 AM 58.9685 20.6888 288° West 461 531 34,000  Level FlightAware ADS-B
Mon 05:44:18 AM 59.0689 20.0589 287° West 461 531 34,000  Level FlightAware ADS-B
Mon 05:44:48 AM 59.0877 19.9386 287° West 462 532 34,000  Level FlightAware ADS-B
Mon 05:45:23 AM 59.1086 19.8043 287° West 465 535 34,000  Level FlightAware ADS-B
Mon 05:46:00 AM 59.1321 19.6510 287° West 467 537 34,000  Level FlightAware ADS-B
Mon 05:46:43 AM 59.1576 19.4845 287° West 467 537 34,000  Level FlightAware ADS-B
Mon 05:47:17 AM 59.1796 19.3393 287° West 469 540 34,000  Level FlightAware ADS-B
Mon 05:47:47 AM 59.1967 19.2252 286° West 470 541 34,000  Level FlightAware ADS-B
Mon 05:48:17 AM 59.2152 19.1001 286° West 468 539 34,000  Level FlightAware ADS-B
Mon 05:49:02 AM 59.2422 18.9165 286° West 470 541 34,000  Level FlightAware ADS-B
Mon 05:49:32 AM 59.2603 18.7932 286° West 470 541 34,000  Level FlightAware ADS-B
Mon 05:50:03 AM 59.2783 18.6689 286° West 471 542 34,000  Level FlightAware ADS-B
Mon 05:50:44 AM 59.3013 18.5087 286° West 471 542 34,000  Level FlightAware ADS-B
Mon 05:51:24 AM 59.3250 18.3421 286° West 470 541 34,000  Level FlightAware ADS-B
Mon 05:52:03 AM 59.3468 18.1867 285° West 470 541 34,000  Level FlightAware ADS-B
Mon 05:52:35 AM 59.3667 18.0447 285° West 466 536 34,000  Level FlightAware ADS-B
Mon 05:53:07 AM 59.3846 17.9156 285° West 466 536 34,000  Level FlightAware ADS-B
Mon 05:53:44 AM 59.4046 17.7695 285° West 466 536 34,000  Level FlightAware ADS-B
Mon 05:54:03 AM 59.4157 17.6883 285° West 461 531 34,000  Level FlightAware ADS-B
Mon 05:54:33 AM 59.4324 17.5641 285° West 461 531 34,000  Level FlightAware ADS-B
Mon 05:55:03 AM 59.4484 17.4445 285° West 460 529 34,000  Level FlightAware ADS-B
Mon 05:55:42 AM 59.4687 17.2918 285° West 458 527 34,000  Level FlightAware ADS-B
Mon 05:56:22 AM 59.4896 17.1333 285° West 455 524 34,000  Level FlightAware ADS-B
Mon 05:56:53 AM 59.5066 17.0032 284° West 452 520 34,000  Level FlightAware ADS-B
Mon 05:57:37 AM 59.5289 16.8296 284° West 446 513 34,000  Level FlightAware ADS-B
Mon 05:58:08 AM 59.5443 16.7101 284° West 446 513 34,000  Level FlightAware ADS-B
Mon 05:58:41 AM 59.5633 16.5803 286° West 448 516 34,000  Level FlightAware ADS-B
Mon 05:59:11 AM 59.5845 16.4643 290° West 448 516 34,000  Level FlightAware ADS-B
Mon 05:59:42 AM 59.5982 16.3862 289° West 448 516 34,000  Level FlightAware ADS-B
Mon 06:00:13 AM 59.6214 16.2494 289° West 446 513 34,000  Level FlightAware ADS-B
Mon 06:01:03 AM 59.6573 16.0327 288° West 446 513 34,000  Level FlightAware ADS-B
Mon 06:01:34 AM 59.6770 15.9125 288° West 443 510 34,000  Level FlightAware ADS-B
Mon 06:02:36 AM 59.7158 15.6736 288° West 446 513 34,000  Level FlightAware ADS-B
Mon 06:03:06 AM 59.7347 15.5564 288° West 450 518 34,000  Level FlightAware ADS-B
Mon 06:03:36 AM 59.7536 15.4379 288° West 450 518 34,000  Level FlightAware ADS-B
Mon 06:04:06 AM 59.7722 15.3203 288° West 448 516 34,000  Level FlightAware ADS-B
Mon 06:04:50 AM 59.7998 15.1452 287° West 449 517 34,000  Level FlightAware ADS-B
Mon 06:05:20 AM 59.8180 15.0295 287° West 449 517 34,000  Level FlightAware ADS-B
Mon 06:06:04 AM 59.8449 14.8558 287° West 450 518 34,000  Level FlightAware ADS-B
Mon 06:06:34 AM 59.8631 14.7372 287° West 451 519 34,000  Level FlightAware ADS-B
Mon 06:07:06 AM 59.8828 14.6082 287° West 450 518 34,000  Level FlightAware ADS-B
Mon 06:07:38 AM 59.9015 14.4841 287° West 451 519 34,000  Level FlightAware ADS-B
Mon 06:08:23 AM 59.9282 14.3063 287° West 451 519 34,000  Level FlightAware ADS-B
Mon 06:08:56 AM 59.9476 14.1750 287° West 450 518 34,000  Level FlightAware ADS-B
Mon 06:09:41 AM 59.9739 13.9960 286° West 448 516 34,000  Level FlightAware ADS-B
Mon 06:10:21 AM 59.9976 13.8339 286° West 450 518 34,000  Level FlightAware ADS-B
Mon 06:10:51 AM 60.0143 13.7176 286° West 451 519 34,000  Level FlightAware ADS-B
Mon 06:11:36 AM 60.0407 13.5329 286° West 454 522 34,000 80 Level FlightAware ADS-B
Mon 06:12:06 AM 60.0576 13.4136 286° West 456 525 34,100 667 Climbing FlightAware ADS-B
Mon 06:12:48 AM 60.0814 13.2440 286° West 456 525 34,800 1,047 Climbing FlightAware ADS-B
Mon 06:13:32 AM 60.1066 13.0631 286° West 454 522 35,600 973 Climbing FlightAware ADS-B
Mon 06:14:02 AM 60.1231 12.9432 286° West 452 520 36,000 324 Climbing FlightAware ADS-B
Mon 06:14:46 AM 60.1478 12.7618 285° West 455 524 36,000  Level FlightAware ADS-B
Mon 06:15:16 AM 60.1642 12.6408 285° West 455 524 36,000  Level FlightAware ADS-B
Mon 06:15:54 AM 60.1848 12.4866 285° West 456 525 36,000  Level FlightAware ADS-B
Mon 06:16:25 AM 60.2015 12.3606 285° West 455 524 36,000  Level FlightAware ADS-B
Mon 06:17:07 AM 60.2242 12.1878 285° West 454 522 36,000  Level FlightAware ADS-B
Mon 06:17:37 AM 60.2403 12.0634 285° West 456 525 36,000  Level FlightAware ADS-B
Mon 06:18:07 AM 60.2559 11.9430 285° West 457 526 36,000  Level FlightAware ADS-B
Mon 06:18:49 AM 60.2777 11.7722 285° West 457 526 36,000  Level FlightAware ADS-B
Mon 06:19:46 AM 60.3076 11.5351 284° West 458 527 36,000  Level FlightAware ADS-B
Mon 06:20:30 AM 60.3300 11.3546 284° West 458 527 36,000  Level FlightAware ADS-B
Mon 06:21:01 AM 60.3454 11.2288 284° West 458 527 36,000  Level FlightAware ADS-B
Mon 06:21:46 AM 60.3683 11.0402 284° West 459 528 36,000  Level FlightAware ADS-B
Mon 06:22:27 AM 60.3893 10.8652 284° West 461 531 36,000  Level FlightAware ADS-B
Mon 06:22:57 AM 60.4041 10.7411 284° West 460 529 36,000  Level FlightAware ADS-B
Mon 06:23:42 AM 60.4255 10.5593 283° West 462 532 36,000  Level FlightAware ADS-B
Mon 06:24:26 AM 60.4478 10.3672 283° West 463 533 36,000  Level FlightAware ADS-B
Mon 06:25:02 AM 60.4653 10.2139 283° West 463 533 36,000  Level FlightAware ADS-B
Mon 06:25:32 AM 60.4796 10.0877 283° West 463 533 36,000  Level FlightAware ADS-B
Mon 06:26:03 AM 60.4944 9.9562 283° West 463 533 36,000  Level FlightAware ADS-B
Mon 06:26:38 AM 60.5099 9.8162 283° West 464 534 36,000  Level FlightAware ADS-B
Mon 06:27:08 AM 60.5245 9.6837 283° West 465 535 36,000  Level FlightAware ADS-B
Mon 06:27:39 AM 60.5389 9.5519 283° West 467 537 36,000  Level FlightAware ADS-B
Mon 06:28:09 AM 60.5530 9.4216 282° West 468 539 36,000  Level FlightAware ADS-B
Mon 06:28:53 AM 60.5731 9.2323 282° West 470 541 36,000  Level FlightAware ADS-B
Mon 06:30:09 AM 60.6071 8.9076 282° West 468 539 36,000  Level FlightAware ADS-B
Mon 06:30:52 AM 60.6259 8.7241 282° West 470 541 36,000  Level FlightAware ADS-B
Mon 06:31:22 AM 60.6390 8.5943 282° West 470 541 36,000  Level FlightAware ADS-B
Mon 06:32:02 AM 60.6565 8.4192 282° West 467 537 36,000  Level FlightAware ADS-B
Mon 06:32:33 AM 60.6698 8.2858 281° West 467 537 36,000  Level FlightAware ADS-B
Mon 06:33:05 AM 60.6830 8.1497 281° West 466 536 36,000  Level FlightAware ADS-B
Mon 06:34:44 AM 60.7239 7.7192 281° West 471 542 36,000  Level FlightAware ADS-B
Mon 06:35:24 AM 60.7403 7.5437 281° West 470 541 36,000  Level FlightAware ADS-B
Mon 06:36:04 AM 60.7562 7.3695 281° West 469 540 36,000  Level FlightAware ADS-B
Mon 06:36:45 AM 60.7719 7.1947 280° West 471 542 36,000  Level FlightAware ADS-B
Mon 06:37:23 AM 60.7869 7.0261 280° West 474 545 36,000  Level FlightAware ADS-B
Mon 06:38:05 AM 60.8029 6.8419 280° West 475 547 36,000  Level FlightAware ADS-B
Mon 06:38:44 AM 60.8179 6.6674 280° West 476 548 36,000  Level FlightAware ADS-B
Mon 06:39:24 AM 60.8328 6.4915 280° West 475 547 36,000  Level FlightAware ADS-B
Mon 06:40:05 AM 60.8479 6.3099 280° West 476 548 36,000  Level FlightAware ADS-B
Mon 06:40:45 AM 60.8624 6.1331 280° West 478 550 36,000  Level FlightAware ADS-B
Mon 06:41:20 AM 60.8752 5.9739 279° West 479 551 36,000 Level FlightAware ADS-B
Mon 06:43:00 AM 60.9102 5.5715 280° West  Level Estimated
Mon 06:44:00 AM 60.9306 5.3296 280° West  Level Estimated
Mon 06:45:00 AM 60.9506 5.0874 280° West  Level Estimated
Mon 06:46:00 AM 60.9701 4.8450 280° West  Level Estimated
Mon 06:47:00 AM 60.9893 4.6022 279° West  Level Estimated
Mon 06:48:00 AM 61.0079 4.3591 279° West  Level Estimated
Mon 06:49:00 AM 61.0262 4.1158 279° West  Level Estimated
Mon 06:50:00 AM 61.0440 3.8722 279° West  Level Estimated
Mon 06:51:00 AM 61.0613 3.6283 278° West  Level Estimated
Mon 06:52:00 AM 61.0782 3.3841 278° West  Level Estimated
Mon 06:53:00 AM 61.0947 3.1397 278° West  Level Estimated
Mon 06:54:00 AM 61.1108 2.8951 278° West  Level Estimated
Mon 06:55:00 AM 61.1264 2.6502 278° West  Level Estimated
Mon 06:56:00 AM 61.1415 2.4050 277° West  Level Estimated
Mon 06:57:00 AM 61.1562 2.1596 277° West  Level Estimated
Mon 06:58:00 AM 61.1705 1.9140 277° West  Level Estimated
Mon 06:59:00 AM 61.1843 1.6682 277° West  Level Estimated
Mon 07:00:00 AM 61.1977 1.4222 277° West  Level Estimated
Mon 07:01:00 AM 61.2106 1.1759 276° West  Level Estimated
Mon 07:02:00 AM 61.2231 0.9295 276° West  Level Estimated
Mon 07:03:00 AM 61.2351 0.6829 276° West  Level Estimated
Mon 07:04:00 AM 61.2467 0.4360 276° West  Level Estimated
Mon 07:05:00 AM 61.2578 0.1890 275° West  Level Estimated
Mon 07:06:00 AM 61.2685 -0.0581 275° West  Level Estimated
Mon 07:07:00 AM 61.2787 -0.3055 275° West  Level Estimated
Mon 07:08:00 AM 61.2885 -0.5530 275° West  Level Estimated
Mon 07:09:00 AM 61.2978 -0.8006 275° West  Level Estimated
Mon 07:10:00 AM 61.3067 -1.0484 274° West  Level Estimated
Mon 07:11:00 AM 61.3151 -1.2963 274° West  Level Estimated
Mon 07:12:00 AM 61.3231 -1.5444 274° West  Level Estimated
Mon 07:13:00 AM 61.3307 -1.7925 274° West  Level Estimated
Mon 07:14:00 AM 61.3377 -2.0408 274° West  Level Estimated
Mon 07:15:00 AM 61.3443 -2.2892 273° West  Level Estimated
Mon 07:16:00 AM 61.3505 -2.5377 273° West  Level Estimated
Mon 07:17:00 AM 61.3562 -2.7863 273° West  Level Estimated
Mon 07:18:00 AM 61.3615 -3.0350 273° West  Level Estimated
Mon 07:19:00 AM 61.3663 -3.2837 272° West  Level Estimated
Mon 07:20:00 AM 61.3706 -3.5326 272° West  Level Estimated
Mon 07:21:00 AM 61.3745 -3.7815 272° West  Level Estimated
Mon 07:22:00 AM 61.3780 -4.0304 272° West  Level Estimated
Mon 07:23:00 AM 61.3810 -4.2794 272° West  Level Estimated
Mon 07:24:00 AM 61.3835 -4.5285 271° West  Level Estimated
Mon 07:25:00 AM 61.3856 -4.7776 271° West  Level Estimated
Mon 07:26:00 AM 61.3872 -5.0267 271° West  Level Estimated
Mon 07:27:00 AM 61.3884 -5.2758 271° West  Level Estimated
Mon 07:28:00 AM 61.3891 -5.5250 270° West  Level Estimated
Mon 07:29:00 AM 61.3893 -5.7742 270° West  Level Estimated
Mon 07:30:00 AM 61.3891 -6.0233 270° West  Level Estimated
Mon 07:31:00 AM 61.3885 -6.2725 270° West  Level Estimated
Mon 07:32:00 AM 61.3874 -6.5216 270° West  Level Estimated
Mon 07:33:00 AM 61.3858 -6.7707 269° West  Level Estimated
Mon 07:34:00 AM 61.3838 -7.0198 269° West  Level Estimated
Mon 07:35:00 AM 61.3813 -7.2689 269° West  Level Estimated
Mon 07:36:00 AM 61.3784 -7.5179 269° West  Level Estimated
Mon 07:37:00 AM 61.3750 -7.7669 268° West  Level Estimated
Mon 07:38:00 AM 61.3711 -8.0158 268° West  Level Estimated
Mon 07:39:00 AM 61.3668 -8.2646 268° West  Level Estimated
Mon 07:40:00 AM 61.3621 -8.5134 268° West  Level Estimated
Mon 07:41:00 AM 61.3569 -8.7621 268° West  Level Estimated
Mon 07:42:00 AM 61.3512 -9.0107 267° West  Level Estimated
Mon 07:43:00 AM 61.3451 -9.2592 267° West  Level Estimated
Mon 07:44:00 AM 61.3385 -9.5076 267° West  Level Estimated
Mon 07:45:00 AM 61.3315 -9.7559 267° West  Level Estimated
Mon 07:46:00 AM 61.3241 -10.0041 267° West  Level Estimated
Mon 07:47:00 AM 61.3161 -10.2521 266° West  Level Estimated
Mon 07:48:00 AM 61.3078 -10.5001 266° West  Level Estimated
Mon 07:49:00 AM 61.2989 -10.7479 266° West  Level Estimated
Mon 07:50:00 AM 61.2896 -10.9956 266° West  Level Estimated
Mon 07:51:00 AM 61.2799 -11.2431 265° West  Level Estimated
Mon 07:52:00 AM 61.2697 -11.4904 265° West  Level Estimated
Mon 07:53:00 AM 61.2591 -11.7376 265° West  Level Estimated
Mon 07:54:00 AM 61.2480 -11.9846 265° West  Level Estimated
Mon 07:55:00 AM 61.2365 -12.2315 265° West  Level Estimated
Mon 07:56:00 AM 61.2245 -12.4781 264° West  Level Estimated
Mon 07:57:00 AM 61.2121 -12.7246 264° West  Level Estimated
Mon 07:58:00 AM 61.1992 -12.9708 264° West  Level Estimated
Mon 07:59:00 AM 61.1859 -13.2169 264° West  Level Estimated
Mon 08:00:00 AM 61.1721 -13.4628 263° West  Level Estimated
Mon 08:01:00 AM 61.1579 -13.7084 263° West  Level Estimated
Mon 08:02:00 AM 61.1433 -13.9538 263° West  Level Estimated
Mon 08:03:00 AM 61.1282 -14.1990 263° West  Level Estimated
Mon 08:04:00 AM 61.1126 -14.4439 263° West  Level Estimated
Mon 08:05:00 AM 61.0967 -14.6886 262° West  Level Estimated
Mon 08:06:00 AM 61.0802 -14.9330 262° West  Level Estimated
Mon 08:07:00 AM 61.0634 -15.1772 262° West  Level Estimated
Mon 08:08:00 AM 61.0461 -15.4212 262° West  Level Estimated
Mon 08:09:00 AM 61.0283 -15.6648 262° West  Level Estimated
Mon 08:10:00 AM 61.0101 -15.9082 261° West  Level Estimated
Mon 08:11:00 AM 60.9915 -16.1513 261° West  Level Estimated
Mon 08:12:00 AM 60.9725 -16.3941 261° West  Level Estimated
Mon 08:13:00 AM 60.9530 -16.6366 261° West  Level Estimated
Mon 08:14:00 AM 60.9330 -16.8788 260° West  Level Estimated
Mon 08:15:00 AM 60.9127 -17.1207 260° West  Level Estimated
Mon 08:16:00 AM 60.8919 -17.3623 260° West  Level Estimated
Mon 08:17:00 AM 60.8706 -17.6036 260° West  Level Estimated
Mon 08:18:00 AM 60.8490 -17.8445 260° West  Level Estimated
Mon 08:19:00 AM 60.8269 -18.0852 259° West  Level Estimated
Mon 08:20:00 AM 60.8044 -18.3255 259° West  Level Estimated
Mon 08:21:00 AM 60.7814 -18.5654 259° West  Level Estimated
Mon 08:22:00 AM 60.7580 -18.8050 259° West  Level Estimated
Mon 08:23:00 AM 60.7342 -19.0443 259° West  Level Estimated
Mon 08:24:00 AM 60.7100 -19.2831 258° West  Level Estimated
Mon 08:25:00 AM 60.6854 -19.5217 258° West  Level Estimated
Mon 08:26:00 AM 60.6603 -19.7598 258° West  Level Estimated
Mon 08:27:00 AM 60.6348 -19.9976 258° West  Level Estimated
Mon 08:28:00 AM 60.6089 -20.2350 258° West  Level Estimated
Mon 08:29:00 AM 60.5825 -20.4720 257° West  Level Estimated
Mon 08:30:00 AM 60.5558 -20.7087 257° West  Level Estimated
Mon 08:31:00 AM 60.5286 -20.9449 257° West  Level Estimated
Mon 08:32:00 AM 60.5010 -21.1807 257° West  Level Estimated
Mon 08:33:00 AM 60.4730 -21.4162 257° West  Level Estimated
Mon 08:34:00 AM 60.4446 -21.6512 256° West  Level Estimated
Mon 08:35:00 AM 60.4157 -21.8858 256° West  Level Estimated
Mon 08:36:00 AM 60.3865 -22.1200 256° West  Level Estimated
Mon 08:37:00 AM 60.3568 -22.3538 256° West  Level Estimated
Mon 08:38:00 AM 60.3267 -22.5871 256° West  Level Estimated
Mon 08:39:00 AM 60.2963 -22.8200 255° West  Level Estimated
Mon 08:40:00 AM 60.2654 -23.0525 255° West  Level Estimated
Mon 08:41:00 AM 60.2341 -23.2845 255° West  Level Estimated
Mon 08:42:00 AM 60.2024 -23.5161 255° West  Level Estimated
Mon 08:43:00 AM 60.1703 -23.7473 254° West  Level Estimated
Mon 08:44:00 AM 60.1378 -23.9779 254° West  Level Estimated
Mon 08:45:00 AM 60.1049 -24.2082 254° West  Level Estimated
Mon 08:46:00 AM 60.0716 -24.4379 254° West  Level Estimated
Mon 08:47:00 AM 60.0379 -24.6672 254° West  Level Estimated
Mon 08:48:00 AM 60.0038 -24.8960 253° West  Level Estimated
Mon 08:49:00 AM 59.9694 -25.1244 253° West  Level Estimated
Mon 08:50:00 AM 59.9345 -25.3523 253° West  Level Estimated
Mon 08:51:00 AM 59.8992 -25.5797 253° West  Level Estimated
Mon 08:52:00 AM 59.8636 -25.8066 253° West  Level Estimated
Mon 08:53:00 AM 59.8275 -26.0330 253° West  Level Estimated
Mon 08:54:00 AM 59.7911 -26.2589 252° West  Level Estimated
Mon 08:55:00 AM 59.7542 -26.4844 252° West  Level Estimated
Mon 08:56:00 AM 59.7170 -26.7093 252° West  Level Estimated
Mon 08:57:00 AM 59.6795 -26.9337 252° West  Level Estimated
Mon 08:58:00 AM 59.6415 -27.1576 252° West  Level Estimated
Mon 08:59:00 AM 59.6031 -27.3811 251° West  Level Estimated
Mon 09:00:00 AM 59.5644 -27.6040 251° West  Level Estimated
Mon 09:01:00 AM 59.5253 -27.8263 251° West  Level Estimated
Mon 09:02:00 AM 59.4858 -28.0482 251° West  Level Estimated
Mon 09:03:00 AM 59.4459 -28.2696 251° West  Level Estimated
Mon 09:04:00 AM 59.4057 -28.4904 250° West  Level Estimated
Mon 09:05:00 AM 59.3651 -28.7107 250° West  Level Estimated
Mon 09:06:00 AM 59.3241 -28.9305 250° West  Level Estimated
Mon 09:07:00 AM 59.2827 -29.1497 250° West  Level Estimated
Mon 09:08:00 AM 59.2410 -29.3684 250° West  Level Estimated
Mon 09:09:00 AM 59.1990 -29.5866 249° West  Level Estimated
Mon 09:10:00 AM 59.1565 -29.8042 249° West  Level Estimated
Mon 09:11:00 AM 59.1137 -30.0213 249° West  Level Estimated
Mon 09:12:00 AM 59.0705 -30.2378 249° West  Level Estimated
Mon 09:13:00 AM 59.0270 -30.4538 249° West  Level Estimated
Mon 09:14:00 AM 58.9831 -30.6693 249° West  Level Estimated
Mon 09:15:00 AM 58.9389 -30.8842 248° West  Level Estimated
Mon 09:16:00 AM 58.8948 -31.0961 248° West  Level Estimated
Mon 09:17:00 AM 58.8503 -31.3075 248° West  Level Estimated
Mon 09:18:00 AM 58.8055 -31.5183 248° West  Level Estimated
Mon 09:19:00 AM 58.7604 -31.7286 248° West  Level Estimated
Mon 09:20:00 AM 58.7149 -31.9384 247° West  Level Estimated
Mon 09:21:00 AM 58.6691 -32.1476 247° West  Level Estimated
Mon 09:22:00 AM 58.6230 -32.3562 247° West  Level Estimated
Mon 09:23:00 AM 58.5765 -32.5643 247° West  Level Estimated
Mon 09:24:00 AM 58.5297 -32.7719 247° West  Level Estimated
Mon 09:25:00 AM 58.4825 -32.9789 247° West  Level Estimated
Mon 09:26:00 AM 58.4350 -33.1853 246° West  Level Estimated
Mon 09:27:00 AM 58.3872 -33.3912 246° West  Level Estimated
Mon 09:28:00 AM 58.3390 -33.5965 246° West  Level Estimated
Mon 09:29:00 AM 58.2906 -33.8013 246° West  Level Estimated
Mon 09:30:00 AM 58.2418 -34.0054 246° West  Level Estimated
Mon 09:31:00 AM 58.1926 -34.2091 245° Southwest  Level Estimated
Mon 09:32:00 AM 58.1432 -34.4121 245° Southwest  Level Estimated
Mon 09:33:00 AM 58.0934 -34.6146 245° Southwest  Level Estimated
Mon 09:34:00 AM 58.0433 -34.8166 245° Southwest  Level Estimated
Mon 09:35:00 AM 57.9929 -35.0179 245° Southwest  Level Estimated
Mon 09:36:00 AM 57.9422 -35.2188 245° Southwest  Level Estimated
Mon 09:37:00 AM 57.8911 -35.4190 244° Southwest  Level Estimated
Mon 09:38:00 AM 57.8398 -35.6186 244° Southwest  Level Estimated
Mon 09:39:00 AM 57.7881 -35.8177 244° Southwest  Level Estimated
Mon 09:40:00 AM 57.7361 -36.0163 244° Southwest  Level Estimated
Mon 09:41:00 AM 57.6838 -36.2142 244° Southwest  Level Estimated
Mon 09:42:00 AM 57.6312 -36.4116 244° Southwest  Level Estimated
Mon 09:43:00 AM 57.5783 -36.6084 243° Southwest  Level Estimated
Mon 09:44:00 AM 57.5251 -36.8046 243° Southwest  Level Estimated
Mon 09:45:00 AM 57.4716 -37.0003 243° Southwest  Level Estimated
Mon 09:46:00 AM 57.4178 -37.1954 243° Southwest  Level Estimated
Mon 09:47:00 AM 57.3637 -37.3899 243° Southwest  Level Estimated
Mon 09:48:00 AM 57.3092 -37.5838 243° Southwest  Level Estimated
Mon 09:49:00 AM 57.2545 -37.7772 242° Southwest  Level Estimated
Mon 09:50:00 AM 57.1995 -37.9700 242° Southwest  Level Estimated
Mon 09:51:00 AM 57.1442 -38.1622 242° Southwest  Level Estimated
Mon 09:52:00 AM 57.0886 -38.3538 242° Southwest  Level Estimated
Mon 09:53:00 AM 57.0327 -38.5449 242° Southwest  Level Estimated
Mon 09:54:00 AM 56.9766 -38.7354 242° Southwest  Level Estimated
Mon 09:55:00 AM 56.9201 -38.9253 241° Southwest  Level Estimated
Mon 09:56:00 AM 56.8633 -39.1146 241° Southwest  Level Estimated
Mon 09:57:00 AM 56.8063 -39.3034 241° Southwest  Level Estimated
Mon 09:58:00 AM 56.7490 -39.4916 241° Southwest  Level Estimated
Mon 09:59:00 AM 56.6914 -39.6792 241° Southwest  Level Estimated
Mon 10:00:00 AM 56.6335 -39.8662 241° Southwest  Level Estimated
Mon 10:01:00 AM 56.5753 -40.0527 241° Southwest  Level Estimated
Mon 10:02:00 AM 56.5169 -40.2386 240° Southwest  Level Estimated
Mon 10:03:00 AM 56.4581 -40.4239 240° Southwest  Level Estimated
Mon 10:04:00 AM 56.3992 -40.6086 240° Southwest  Level Estimated
Mon 10:05:00 AM 56.3399 -40.7928 240° Southwest  Level Estimated
Mon 10:06:00 AM 56.2803 -40.9764 240° Southwest  Level Estimated
Mon 10:07:00 AM 56.2205 -41.1594 240° Southwest  Level Estimated
Mon 10:08:00 AM 56.1604 -41.3419 239° Southwest  Level Estimated
Mon 10:09:00 AM 56.1001 -41.5237 239° Southwest  Level Estimated
Mon 10:10:00 AM 56.0395 -41.7050 239° Southwest  Level Estimated
Mon 10:11:00 AM 55.9786 -41.8858 239° Southwest  Level Estimated
Mon 10:12:00 AM 55.9174 -42.0659 239° Southwest  Level Estimated
Mon 10:13:00 AM 55.8560 -42.2455 239° Southwest  Level Estimated
Mon 10:14:00 AM 55.7944 -42.4246 239° Southwest  Level Estimated
Mon 10:15:00 AM 55.7324 -42.6031 238° Southwest  Level Estimated
Mon 10:16:00 AM 55.6702 -42.7809 238° Southwest  Level Estimated
Mon 10:17:00 AM 55.6078 -42.9583 238° Southwest  Level Estimated
Mon 10:18:00 AM 55.5451 -43.1351 238° Southwest  Level Estimated
Mon 10:19:00 AM 55.4822 -43.3112 238° Southwest  Level Estimated
Mon 10:20:00 AM 55.4190 -43.4869 238° Southwest  Level Estimated
Mon 10:21:00 AM 55.3555 -43.6620 238° Southwest  Level Estimated
Mon 10:22:00 AM 55.2918 -43.8365 237° Southwest  Level Estimated
Mon 10:23:00 AM 55.2279 -44.0104 237° Southwest  Level Estimated
Mon 10:24:00 AM 55.1637 -44.1838 237° Southwest  Level Estimated
Mon 10:25:00 AM 55.0992 -44.3567 237° Southwest  Level Estimated
Mon 10:26:00 AM 55.0345 -44.5290 237° Southwest  Level Estimated
Mon 10:27:00 AM 54.9696 -44.7007 237° Southwest  Level Estimated
Mon 10:28:00 AM 54.9018 -44.8788 237° Southwest  Level Estimated
Mon 10:28:16 AM 62.9833 -55.8167 236° Southwest 490 564 37,000  Level Gander Center
Mon 10:29:00 AM 54.8337 -45.0563 236° Southwest  Level Estimated
Mon 10:29:16 AM 62.9333 -56.1167 250° West 490 564 37,000  Level Gander Center
Mon 10:30:00 AM 54.7654 -45.2331 236° Southwest  Level Estimated
Mon 10:30:16 AM 62.8667 -56.3833 241° Southwest 490 564 37,000  Level Gander Center
Mon 10:31:00 AM 54.6968 -45.4094 236° Southwest  Level Estimated
Mon 10:31:16 AM 62.8000 -56.6500 241° Southwest 500 575 37,000  Level Gander Center
Mon 10:32:00 AM 54.6280 -45.5851 236° Southwest  Level Estimated
Mon 10:32:16 AM 62.7333 -56.9000 240° Southwest 500 575 37,000  Level Gander Center
Mon 10:33:00 AM 54.5589 -45.7602 236° Southwest  Level Estimated
Mon 10:33:16 AM 62.6833 -57.2000 250° West 500 575 37,000  Level Gander Center
Mon 10:33:55 AM 62.6500 -57.3000 234° Southwest 500 575 37,000  Level Montreal Center
Mon 10:34:55 AM 62.5667 -57.5667 236° Southwest 500 575 37,000  Level Montreal Center
Mon 10:35:55 AM 62.5167 -57.8333 248° West 500 575 37,000  Level Montreal Center
Mon 10:36:55 AM 62.4667 -58.0833 247° West 490 564 37,000  Level Montreal Center
Mon 10:37:55 AM 62.4000 -58.3500 242° Southwest 490 564 37,000  Level Montreal Center
Mon 10:38:55 AM 62.3500 -58.6000 247° West 490 564 37,000  Level Montreal Center
Mon 10:39:55 AM 62.2667 -58.8667 236° Southwest 490 564 37,000  Level Montreal Center
Mon 10:40:55 AM 62.2167 -59.1167 247° West 490 564 37,000  Level Montreal Center
Mon 10:41:55 AM 62.1500 -59.3667 240° Southwest 500 575 37,000  Level Montreal Center
Mon 10:42:55 AM 62.0833 -59.6667 245° Southwest 500 575 37,000  Level Montreal Center
Mon 10:43:55 AM 62.0167 -59.9167 240° Southwest 500 575 37,000  Level Montreal Center
Mon 10:44:55 AM 61.9667 -60.2000 250° West 510 587 37,000  Level Montreal Center
Mon 10:45:55 AM 61.9333 -60.5167 258° West 510 587 37,000  Level Montreal Center
Mon 10:46:55 AM 61.8833 -60.7833 248° West 520 598 37,000  Level Montreal Center
Mon 10:47:55 AM 61.8333 -61.1000 252° West 520 598 37,000  Level Montreal Center
Mon 10:48:55 AM 61.7833 -61.3833 250° West 520 598 37,000  Level Montreal Center
Mon 10:49:55 AM 61.7500 -61.6500 255° West 520 598 37,000  Level Montreal Center
Mon 10:50:55 AM 61.6833 -61.9667 246° West 520 598 37,000  Level Montreal Center
Mon 10:51:55 AM 61.6333 -62.2333 249° West 520 598 37,000  Level Montreal Center
Mon 10:52:55 AM 61.5833 -62.5000 249° West 520 598 37,000  Level Montreal Center
Mon 10:53:55 AM 61.5333 -62.8167 252° West 520 598 37,000  Level Montreal Center
Mon 10:54:55 AM 61.4833 -63.0833 249° West 520 598 37,000  Level Montreal Center
Mon 10:55:55 AM 61.4333 -63.3500 249° West 540 621 37,000  Level Montreal Center
Mon 10:56:55 AM 61.3667 -63.6667 246° West 520 598 37,000  Level Montreal Center
Mon 10:57:55 AM 61.3333 -63.9667 257° West 520 598 37,000 50 Level Montreal Center
Mon 10:58:55 AM 61.2667 -64.2333 243° Southwest 530 610 37,100 250 Climbing Montreal Center
Mon 10:59:55 AM 61.2167 -64.5000 249° West 520 598 37,500 450 Climbing Montreal Center
Mon 11:00:55 AM 61.1667 -64.8000 251° West 520 598 38,000 250 Climbing Montreal Center
Mon 11:01:55 AM 61.1167 -65.0500 248° West 490 564 38,000  Level Montreal Center
Mon 11:02:55 AM 61.0667 -65.3167 249° West 500 575 38,000  Level Montreal Center
Mon 11:03:55 AM 61.0000 -65.5833 243° Southwest 500 575 38,000  Level Montreal Center
Mon 11:04:55 AM 60.9500 -65.8500 249° West 490 564 38,000  Level Montreal Center
Mon 11:05:55 AM 60.9000 -66.1000 248° West 480 552 38,000  Level Montreal Center
Mon 11:06:55 AM 60.8500 -66.3333 246° West 500 575 38,000  Level Montreal Center
Mon 11:07:55 AM 60.7667 -66.6000 237° Southwest 490 564 38,000  Level Montreal Center
Mon 11:08:55 AM 60.6833 -66.7833 227° Southwest 470 541 38,000  Level Montreal Center
Mon 11:09:55 AM 60.6000 -66.9500 225° Southwest 460 529 38,000  Level Montreal Center
Mon 11:10:55 AM 60.4833 -67.0500 203° Southwest 450 518 38,000  Level Montreal Center
Mon 11:11:55 AM 60.3500 -67.1500 200° South 450 518 38,000  Level Montreal Center
Mon 11:12:55 AM 60.2500 -67.2833 214° Southwest 460 529 38,000  Level Montreal Center
Mon 11:13:55 AM 60.1500 -67.4167 214° Southwest 460 529 38,000  Level Montreal Center
Mon 11:14:55 AM 60.0333 -67.5333 207° Southwest 460 529 38,000  Level Montreal Center
Mon 11:15:55 AM 59.9333 -67.6667 214° Southwest 450 518 38,000  Level Montreal Center
Mon 11:16:55 AM 59.8167 -67.8000 210° Southwest 460 529 38,000  Level Montreal Center
Mon 11:17:55 AM 59.7167 -67.9167 210° Southwest 460 529 38,000  Level Montreal Center
Mon 11:18:55 AM 59.6000 -68.0500 210° Southwest 460 529 38,000  Level Montreal Center
Mon 11:19:55 AM 59.4667 -68.2167 212° Southwest 460 529 38,000  Level Montreal Center
Mon 11:20:55 AM 59.3667 -68.3333 211° Southwest 470 541 38,000  Level Montreal Center
Mon 11:21:55 AM 59.2500 -68.4500 207° Southwest 460 529 38,000  Level Montreal Center
Mon 11:22:55 AM 59.1333 -68.5833 210° Southwest 460 529 38,000  Level Montreal Center
Mon 11:23:55 AM 59.0333 -68.7000 211° Southwest 460 529 38,000  Level Montreal Center
Mon 11:24:55 AM 58.9167 -68.8167 207° Southwest 460 529 38,000  Level Montreal Center
Mon 11:25:55 AM 58.8000 -68.9833 217° Southwest 460 529 38,000  Level Montreal Center
Mon 11:26:55 AM 58.7167 -69.1000 216° Southwest 460 529 38,000  Level Montreal Center
Mon 11:27:55 AM 58.6000 -69.2167 208° Southwest 460 529 38,000  Level Montreal Center
Mon 11:28:55 AM 58.4833 -69.3333 208° Southwest 450 518 38,000  Level Montreal Center
Mon 11:29:55 AM 58.3667 -69.4500 208° Southwest 460 529 38,000  Level Montreal Center
Mon 11:30:55 AM 58.2500 -69.5667 208° Southwest 460 529 38,000  Level Montreal Center
Mon 11:31:55 AM 58.1333 -69.7167 214° Southwest 470 541 38,000  Level Montreal Center
Mon 11:32:55 AM 58.0167 -69.8333 208° Southwest 470 541 38,000  Level Montreal Center
Mon 11:33:55 AM 57.9167 -69.9333 208° Southwest 460 529 38,000  Level Montreal Center
Mon 11:34:55 AM 57.8000 -70.0500 208° Southwest 460 529 38,000  Level Montreal Center
Mon 11:35:55 AM 57.7000 -70.1667 212° Southwest 460 529 38,000  Level Montreal Center
Mon 11:36:55 AM 57.5833 -70.2833 208° Southwest 450 518 38,000  Level Montreal Center
Mon 11:37:55 AM 57.4833 -70.3833 208° Southwest 460 529 38,000  Level Montreal Center
Mon 11:38:55 AM 57.3667 -70.5000 208° Southwest 460 529 38,000  Level Montreal Center
Mon 11:39:55 AM 57.2500 -70.6333 212° Southwest 460 529 38,000  Level Montreal Center
Mon 11:40:55 AM 57.1333 -70.7500 208° Southwest 460 529 38,000  Level Montreal Center
Mon 11:41:55 AM 57.0167 -70.8667 209° Southwest 460 529 38,000  Level Montreal Center
Mon 11:42:55 AM 56.9167 -70.9667 209° Southwest 450 518 38,000  Level Montreal Center
Mon 11:43:55 AM 56.8000 -71.0667 205° Southwest 460 529 38,000  Level Montreal Center
Mon 11:44:55 AM 56.6833 -71.1833 209° Southwest 450 518 38,000  Level Montreal Center
Mon 11:45:55 AM 56.5667 -71.2833 205° Southwest 460 529 38,000  Level Montreal Center
Mon 11:46:55 AM 56.4667 -71.3833 209° Southwest 450 518 38,000  Level Montreal Center
Mon 11:47:55 AM 56.3500 -71.5000 209° Southwest 450 518 38,000  Level Montreal Center
Mon 11:48:55 AM 56.2500 -71.6000 209° Southwest 440 506 38,000  Level Montreal Center
Mon 11:49:55 AM 56.1333 -71.7000 206° Southwest 440 506 38,000  Level Montreal Center
Mon 11:50:55 AM 56.0167 -71.8000 206° Southwest 440 506 38,000  Level Montreal Center
Mon 11:51:55 AM 55.9167 -71.9000 209° Southwest 440 506 38,000  Level Montreal Center
Mon 11:52:55 AM 55.8000 -72.0000 206° Southwest 440 506 38,000  Level Montreal Center
Mon 11:53:55 AM 55.6833 -72.1167 209° Southwest 440 506 38,000  Level Montreal Center
Mon 11:54:55 AM 55.5833 -72.2000 205° Southwest 440 506 38,000  Level Montreal Center
Mon 11:55:55 AM 55.4667 -72.3000 206° Southwest 440 506 38,000  Level Montreal Center
Mon 11:56:55 AM 55.3667 -72.4000 210° Southwest 440 506 38,000  Level Montreal Center
Mon 11:57:55 AM 55.2667 -72.5000 210° Southwest 440 506 38,000  Level Montreal Center
Mon 11:58:55 AM 55.1500 -72.6000 206° Southwest 440 506 38,000  Level Montreal Center
Mon 11:59:55 AM 55.0500 -72.7000 210° Southwest 440 506 38,000  Level Montreal Center
Mon 12:00:55 PM 54.9333 -72.8000 206° Southwest 440 506 38,000  Level Montreal Center
Mon 12:01:55 PM 54.8333 -72.9000 210° Southwest 440 506 38,000  Level Montreal Center
Mon 12:02:55 PM 54.7000 -72.9833 200° South 440 506 38,000  Level Montreal Center
Mon 12:03:55 PM 54.6000 -73.0833 210° Southwest 440 506 38,000  Level Montreal Center
Mon 12:04:55 PM 54.4833 -73.1833 206° Southwest 430 495 38,000  Level Montreal Center
Mon 12:05:55 PM 54.3833 -73.2667 206° Southwest 430 495 38,000  Level Montreal Center
Mon 12:06:55 PM 54.2667 -73.3667 207° Southwest 430 495 38,000  Level Montreal Center
Mon 12:07:55 PM 54.1667 -73.4667 210° Southwest 430 495 38,000  Level Montreal Center
Mon 12:08:55 PM 54.0500 -73.5500 203° Southwest 430 495 38,000  Level Montreal Center
Mon 12:09:55 PM 53.9500 -73.6500 210° Southwest 430 495 38,000  Level Montreal Center
Mon 12:10:55 PM 53.8333 -73.7333 203° Southwest 430 495 38,000  Level Montreal Center
Mon 12:11:55 PM 53.7333 -73.8000 202° Southwest 420 483 38,000  Level Montreal Center
Mon 12:12:55 PM 53.6500 -73.8833 211° Southwest 420 483 38,000  Level Montreal Center
Mon 12:13:55 PM 53.5333 -73.9833 207° Southwest 420 483 38,000  Level Montreal Center
Mon 12:14:55 PM 53.4333 -74.0667 206° Southwest 430 495 38,000  Level Montreal Center
Mon 12:15:55 PM 53.3167 -74.1667 207° Southwest 430 495 38,000  Level Montreal Center
Mon 12:16:55 PM 53.2167 -74.2500 207° Southwest 420 483 38,000  Level Montreal Center
Mon 12:17:55 PM 53.1000 -74.3333 203° Southwest 430 495 38,000  Level Montreal Center
Mon 12:18:55 PM 53.0000 -74.4333 211° Southwest 430 495 38,000  Level Montreal Center
Mon 12:19:55 PM 52.8833 -74.5167 203° Southwest 420 483 38,000  Level Montreal Center
Mon 12:20:55 PM 52.7833 -74.6000 207° Southwest 430 495 38,000  Level Montreal Center
Mon 12:21:55 PM 52.6667 -74.6833 203° Southwest 430 495 38,000  Level Montreal Center
Mon 12:22:55 PM 52.5667 -74.7667 207° Southwest 430 495 38,000  Level Montreal Center
Mon 12:23:55 PM 52.4500 -74.8667 208° Southwest 430 495 38,000  Level Montreal Center
Mon 12:24:55 PM 52.3500 -74.9167 197° South 430 495 38,000  Level Montreal Center
Mon 12:25:55 PM 52.2333 -75.0000 204° Southwest 410 472 38,000  Level Montreal Center
Mon 12:26:55 PM 52.1167 -75.0833 204° Southwest 420 483 38,000  Level Montreal Center
Mon 12:27:55 PM 52.0000 -75.1667 204° Southwest 450 518 38,000  Level Montreal Center
Mon 12:28:55 PM 51.9000 -75.2500 207° Southwest 430 495 38,000  Level Montreal Center
Mon 12:29:55 PM 51.7833 -75.3333 204° Southwest 430 495 38,000  Level Montreal Center
Mon 12:30:55 PM 51.6833 -75.4167 207° Southwest 430 495 38,000  Level Montreal Center
Mon 12:31:55 PM 51.5667 -75.5000 204° Southwest 430 495 38,000  Level Montreal Center
Mon 12:32:55 PM 51.4667 -75.5833 207° Southwest 430 495 38,000  Level Montreal Center
Mon 12:33:55 PM 51.3667 -75.6667 207° Southwest 430 495 38,000  Level Montreal Center
Mon 12:34:55 PM 51.2500 -75.7500 204° Southwest 420 483 38,000  Level Montreal Center
Mon 12:35:55 PM 51.1500 -75.8000 197° South 420 483 38,000  Level Montreal Center
Mon 12:36:55 PM 51.0333 -75.8833 204° Southwest 420 483 38,000  Level Montreal Center
Mon 12:37:55 PM 50.9333 -75.9667 208° Southwest 420 483 38,000  Level Montreal Center
Mon 12:38:55 PM 50.8167 -76.0500 204° Southwest 420 483 38,000  Level Montreal Center
Mon 12:39:55 PM 50.7167 -76.1167 203° Southwest 420 483 38,000  Level Montreal Center
Mon 12:40:55 PM 50.6167 -76.2000 208° Southwest 420 483 38,000  Level Montreal Center
Mon 12:41:55 PM 50.5000 -76.2833 204° Southwest 420 483 38,000  Level Montreal Center
Mon 12:42:55 PM 50.3833 -76.3667 204° Southwest 420 483 38,000  Level Montreal Center
Mon 12:43:55 PM 50.2833 -76.4167 198° South 420 483 38,000  Level Montreal Center
Mon 12:44:55 PM 50.1833 -76.4833 203° Southwest 420 483 38,000  Level Montreal Center
Mon 12:45:55 PM 50.0500 -76.5667 202° Southwest 420 483 38,000  Level Montreal Center
Mon 12:46:55 PM 49.9500 -76.6500 208° Southwest 420 483 38,000  Level Montreal Center
Mon 12:47:55 PM 49.8500 -76.7167 203° Southwest 420 483 38,000  Level Montreal Center
Mon 12:48:55 PM 49.7500 -76.8000 208° Southwest 410 472 38,000  Level Montreal Center
Mon 12:49:55 PM 49.6333 -76.8667 200° South 420 483 38,000  Level Montreal Center
Mon 12:50:55 PM 49.5333 -76.9500 208° Southwest 400 460 38,000  Level Montreal Center
Mon 12:51:55 PM 49.4167 -77.0000 196° South 430 495 38,000  Level Montreal Center
Mon 12:52:55 PM 49.3167 -77.0833 209° Southwest 430 495 38,000  Level Montreal Center
Mon 12:53:55 PM 49.2167 -77.1500 204° Southwest 400 460 38,000  Level Montreal Center
Mon 12:54:55 PM 49.1000 -77.2167 201° Southwest 420 483 38,000  Level Montreal Center
Mon 12:55:55 PM 49.0000 -77.3000 209° Southwest 420 483 38,000  Level Montreal Center
Mon 12:56:55 PM 48.8833 -77.3667 201° Southwest 420 483 38,000  Level Montreal Center
Mon 12:57:55 PM 48.7833 -77.4167 198° South 410 472 38,000  Level Montreal Center
Mon 12:58:55 PM 48.6667 -77.5000 205° Southwest 420 483 38,000  Level Montreal Center
Mon 12:59:55 PM 48.5667 -77.5667 204° Southwest 420 483 38,000  Level Montreal Center
Mon 01:00:55 PM 48.4667 -77.6333 204° Southwest 420 483 38,000  Level Montreal Center
Mon 01:01:55 PM 48.3500 -77.7167 205° Southwest 410 472 38,000  Level Montreal Center
Mon 01:02:55 PM 48.2500 -77.7833 204° Southwest 410 472 38,000  Level Montreal Center
Mon 01:03:55 PM 48.1500 -77.8333 198° South 410 472 38,000  Level Montreal Center
Mon 01:04:55 PM 48.0500 -77.9000 204° Southwest 410 472 38,000  Level Montreal Center
Mon 01:05:55 PM 47.9167 -77.9667 199° South 410 472 38,000  Level Montreal Center
Mon 01:06:55 PM 47.8167 -78.0167 199° South 410 472 38,000  Level Montreal Center
Mon 01:07:55 PM 47.7167 -78.0833 204° Southwest 410 472 38,000  Level Montreal Center
Mon 01:08:55 PM 47.6000 -78.1667 206° Southwest 410 472 38,000  Level Montreal Center
Mon 01:09:55 PM 47.5000 -78.2000 193° South 410 472 38,000  Level Montreal Center
Mon 01:10:55 PM 47.4000 -78.2667 204° Southwest 410 472 38,000  Level Montreal Center
Mon 01:11:55 PM 47.3000 -78.3500 209° Southwest 410 472 38,000  Level Montreal Center
Mon 01:12:55 PM 47.2000 -78.3833 193° South 410 472 38,000  Level Montreal Center
Mon 01:13:55 PM 47.0667 -78.4500 199° South 410 472 38,000  Level Montreal Center
Mon 01:14:55 PM 46.9667 -78.5333 210° Southwest 410 472 38,000  Level Montreal Center
Mon 01:15:55 PM 46.8500 -78.5667 191° South 410 472 38,000  Level Montreal Center
Mon 01:16:55 PM 46.7500 -78.6333 205° Southwest 410 472 38,000  Level Montreal Center
Mon 01:17:55 PM 46.6500 -78.7000 205° Southwest 410 472 38,000  Level Montreal Center
Mon 01:24:01 PM 46.0122 -79.0413 205° Southwest 405 466 38,000  Level FlightAware ADS-B
Mon 01:25:02 PM 45.9034 -79.0996 200° South 406 467 38,000  Level FlightAware ADS-B
Mon 01:27:52 PM 45.4791 -79.3259 201° Southwest 409 471 38,000  Level FlightAware ADS-B
Mon 01:29:12 PM 45.4685 -79.3315 200° South 409 471 38,000  Level FlightAware ADS-B
Mon 01:32:07 PM 45.1842 -79.4815 200° South 411 473 38,000  Level FlightAware ADS-B (CYKF)
Mon 01:33:45 PM 44.9766 -79.5897 200° South 410 472 38,000  Level FlightAware ADS-B (CYKF)
Mon 01:35:33 PM 44.6764 -79.7819 204° Southwest 396 456 38,000  Level FlightAware ADS-B
Mon 01:36:14 PM 44.6078 -79.8282 206° Southwest 394 453 38,000  Level FlightAware ADS-B
Mon 01:36:47 PM 44.5512 -79.8663 206° Southwest 394 453 38,000  Level FlightAware ADS-B
Mon 01:37:32 PM 44.4798 -79.9139 205° Southwest 395 455 38,000  Level FlightAware ADS-B
Mon 01:39:25 PM 44.4063 -79.9629 205° Southwest 404 465 38,000  Level FlightAware ADS-B (CYKF)
Mon 01:40:38 PM 44.3743 -79.9843 205° Southwest 403 464 38,000  Level FlightAware ADS-B (CYKF)
Mon 01:41:27 PM 44.2007 -80.0990 205° Southwest 395 455 38,000  Level FlightAware ADS-B (CYKF)
Mon 01:42:06 PM 44.1366 -80.1413 205° Southwest 393 452 38,000  Level FlightAware ADS-B (CYKF)
Mon 01:42:47 PM 44.0849 -80.1755 205° Southwest 392 451 38,000  Level FlightAware ADS-B (CYKF)
Mon 01:43:24 PM 44.0088 -80.2256 205° Southwest 394 453 38,000  Level FlightAware ADS-B (CYKF)
Mon 01:44:03 PM 43.9441 -80.2679 205° Southwest 403 464 38,000  Level FlightAware ADS-B (CYKF)
Mon 01:44:45 PM 43.8744 -80.3135 205° Southwest 404 465 38,000  Level FlightAware ADS-B
Mon 01:45:25 PM 43.8066 -80.3575 205° Southwest 404 465 38,000  Level FlightAware ADS-B
Mon 01:46:06 PM 43.7534 -80.3921 205° Southwest 402 463 38,000  Level FlightAware ADS-B (CYKF)
Mon 01:46:43 PM 43.6749 -80.4431 205° Southwest 402 463 38,000  Level FlightAware ADS-B
Mon 01:47:20 PM 43.6124 -80.4836 205° Southwest 404 465 38,000  Level FlightAware ADS-B
Mon 01:47:58 PM 43.5825 -80.5028 205° Southwest 403 464 38,000  Level FlightAware ADS-B
Mon 01:48:45 PM 43.4687 -80.5761 205° Southwest 403 464 38,000  Level FlightAware ADS-B
Mon 01:49:25 PM 43.4019 -80.6189 205° Southwest 403 464 38,000  Level FlightAware ADS-B (CYKF)
Mon 01:50:03 PM 43.3370 -80.6604 205° Southwest 403 464 38,000  Level FlightAware ADS-B
Mon 01:50:44 PM 43.2791 -80.6975 205° Southwest 402 463 38,000  Level FlightAware ADS-B
Mon 01:51:17 PM 43.2475 -80.7176 205° Southwest 404 465 38,000  Level FlightAware ADS-B
Mon 01:51:47 PM 43.1634 -80.7712 205° Southwest 406 467 38,000  Level FlightAware ADS-B (CYKF)
Mon 01:52:24 PM 43.1044 -80.8087 205° Southwest 405 466 38,000  Level FlightAware ADS-B (CYKF)
Mon 01:53:07 PM 43.0271 -80.8576 205° Southwest 403 464 38,000  Level FlightAware ADS-B (CYKF)
Mon 01:53:45 PM 42.9621 -80.8987 205° Southwest 401 461 38,000  Level FlightAware ADS-B (CYKF)
Mon 01:54:25 PM 42.9010 -80.9372 205° Southwest 399 459 38,000  Level FlightAware ADS-B (CYKF)
Mon 01:54:56 PM 42.8438 -80.9731 205° Southwest 398 458 38,000  Level FlightAware ADS-B (CYKF)
Mon 01:55:43 PM 42.7732 -81.0175 205° Southwest 396 456 38,000  Level FlightAware ADS-B (CYKF)
Mon 01:56:27 PM 42.6922 -81.0682 205° Southwest 396 456 38,000  Level FlightAware ADS-B (CYKF)
Mon 01:57:06 PM 42.6275 -81.1087 205° Southwest 400 460 38,000  Level FlightAware ADS-B (CYKF)
Mon 01:57:44 PM 42.5657 -81.1472 205° Southwest 400 460 38,000  Level FlightAware ADS-B (CYKF)
Mon 01:58:26 PM 42.4924 -81.1927 205° Southwest 401 461 38,000  Level FlightAware ADS-B (CYKF)
Mon 01:59:04 PM 42.4309 -81.2307 205° Southwest 400 460 38,000  Level FlightAware ADS-B (CYKF)
Mon 01:59:47 PM 42.3562 -81.2768 205° Southwest 399 459 38,000  Level FlightAware ADS-B (CYKF)
Mon 02:00:25 PM 42.2930 -81.3158 205° Southwest 398 458 38,000  Level FlightAware ADS-B (CYKF)
Mon 02:01:07 PM 42.2229 -81.3591 205° Southwest 397 457 38,000  Level FlightAware ADS-B (CYKF)
Mon 02:02:31 PM 42.0833 -81.4448 205° Southwest 394 453 38,000  Level FlightAware ADS-B (CYKF)
Mon 02:03:24 PM 41.9975 -81.4953 205° Southwest 395 455 38,000  Level Indianapolis Center
Mon 02:04:00 PM 41.9481 -81.5272 206° Southwest 394 453 38,000  Level Cleveland Center
Mon 02:05:02 PM 41.8489 -81.5881 205° Southwest 391 450 38,000  Level Cleveland Center
Mon 02:06:04 PM 41.7506 -81.6469 204° Southwest 389 448 38,000  Level Cleveland Center
Mon 02:07:06 PM 41.6342 -81.7164 204° Southwest 389 448 38,000  Level Cleveland Center
Mon 02:08:08 PM 41.5361 -81.7761 205° Southwest 388 447 38,000  Level Cleveland Center
Mon 02:09:09 PM 41.4369 -81.8344 204° Southwest 389 448 38,000  Level Cleveland Center
Mon 02:10:11 PM 41.3461 -81.8894 204° Southwest 389 448 38,000  Level Cleveland Center
Mon 02:11:13 PM 41.2483 -81.9456 203° Southwest 388 447 38,000  Level Cleveland Center
Mon 02:12:15 PM 41.1300 -82.0178 205° Southwest 388 447 38,000  Level Cleveland Center
Mon 02:13:16 PM 41.0267 -82.0789 204° Southwest 389 448 38,000  Level Cleveland Center
Mon 02:14:18 PM 40.9281 -82.1361 204° Southwest 387 445 38,000  Level Cleveland Center
Mon 02:15:20 PM 40.8272 -82.1964 204° Southwest 390 449 38,000  Level Cleveland Center
Mon 02:16:22 PM 40.7253 -82.2564 204° Southwest 394 453 38,000  Level Cleveland Center
Mon 02:17:23 PM 40.6225 -82.3150 203° Southwest 396 456 38,000  Level Cleveland Center
Mon 02:18:26 PM 40.5208 -82.3750 204° Southwest 397 457 38,000  Level Cleveland Center
Mon 02:23:42 PM 39.9334 -82.6028 204° Southwest 442 509 38,000  Level FlightAware ADS-B
Mon 02:24:44 PM 39.8052 -82.6120 183° South 442 509 38,000  Level FlightAware ADS-B
Mon 02:25:29 PM 39.7235 -82.6175 183° South 439 505 38,000  Level FlightAware ADS-B
Mon 02:26:13 PM 39.6249 -82.6241 183° South 435 501 38,000  Level FlightAware ADS-B
Mon 02:26:57 PM 39.5361 -82.6301 183° South 434 499 38,000  Level FlightAware ADS-B
Mon 02:27:54 PM 39.4213 -82.6377 183° South 433 498 38,000  Level FlightAware ADS-B
Mon 02:28:40 PM 39.3316 -82.6437 183° South 431 496 38,000  Level FlightAware ADS-B
Mon 02:29:22 PM 39.2506 -82.6556 187° South 410 472 38,000  Level FlightAware ADS-B
Mon 02:29:52 PM 39.1945 -82.6761 196° South 409 471 38,000  Level FlightAware ADS-B
Mon 02:30:35 PM 39.1161 -82.7044 196° South 411 473 38,000  Level FlightAware ADS-B
Mon 02:31:05 PM 39.0624 -82.7241 196° South 411 473 38,000  Level FlightAware ADS-B
Mon 02:31:38 PM 39.0016 -82.7462 196° South 411 473 38,000  Level FlightAware ADS-B
Mon 02:32:08 PM 38.9523 -82.7639 196° South 412 474 38,000  Level FlightAware ADS-B
Mon 02:32:51 PM 38.8680 -82.7950 196° South 413 475 38,000  Level FlightAware ADS-B
Mon 02:34:03 PM 38.7368 -82.8458 197° South 410 472 38,000  Level FlightAware ADS-B
Mon 02:35:02 PM 38.6305 -82.8868 197° South 411 473 38,000  Level FlightAware ADS-B
Mon 02:35:35 PM 38.5688 -82.9105 197° South 411 473 38,000  Level FlightAware ADS-B
Mon 02:36:06 PM 38.5134 -82.9320 197° South 412 474 38,000  Level FlightAware ADS-B
Mon 02:36:49 PM 38.4346 -82.9621 197° South 413 475 38,000  Level FlightAware ADS-B
Mon 02:37:47 PM 38.3286 -83.0025 197° South 417 480 38,000  Level FlightAware ADS-B
Mon 02:38:18 PM 38.2750 -83.0228 197° South 418 481 38,000  Level FlightAware ADS-B
Mon 02:39:00 PM 38.1931 -83.0540 197° South 420 483 38,000  Level FlightAware ADS-B
Mon 02:40:07 PM 38.0848 -83.0949 197° South 419 482 38,000  Level FlightAware ADS-B
Mon 02:40:45 PM 37.9964 -83.1283 197° South 420 483 38,000  Level FlightAware ADS-B
Mon 02:41:28 PM 37.9342 -83.1518 197° South 417 480 38,000  Level FlightAware ADS-B
Mon 02:42:29 PM 37.8053 -83.2002 197° South 418 481 38,000  Level FlightAware ADS-B
Mon 02:43:27 PM 37.7169 -83.2356 197° South 417 480 38,000  Level Indianapolis Center
Mon 02:44:29 PM 37.5867 -83.2833 196° South 418 481 38,000  Level Indianapolis Center
Mon 02:45:31 PM 37.4728 -83.3253 196° South 425 489 38,000  Level Indianapolis Center
Mon 02:46:33 PM 37.3594 -83.3669 196° South 425 489 38,000  Level Indianapolis Center
Mon 02:47:34 PM 37.2478 -83.4086 197° South 421 484 38,000  Level Indianapolis Center
Mon 02:48:36 PM 37.1381 -83.4486 196° South 413 475 38,000  Level Indianapolis Center
Mon 02:49:38 PM 37.0303 -83.4886 197° South 405 466 38,000  Level Indianapolis Center
Mon 02:50:40 PM 36.9044 -83.5339 196° South 405 466 38,000  Level Indianapolis Center
Mon 02:51:42 PM 36.7942 -83.5744 196° South 409 471 38,000  Level Indianapolis Center
Mon 02:52:44 PM 36.6831 -83.6147 196° South 417 480 38,000  Level Indianapolis Center
Mon 02:53:45 PM 36.5717 -83.6553 196° South 417 480 38,000  Level Indianapolis Center
Mon 02:54:47 PM 36.4619 -83.6944 196° South 405 466 38,000  Level Indianapolis Center
Mon 02:55:49 PM 36.3525 -83.7339 196° South 406 467 38,000  Level Indianapolis Center
Mon 02:56:51 PM 36.2433 -83.7722 196° South 406 467 38,000  Level Indianapolis Center
Mon 02:57:54 PM 36.1122 -83.8228 197° South 411 473 38,000  Level Atlanta Center
Mon 02:58:53 PM 36.0019 -83.8617 196° South 411 473 38,000  Level Atlanta Center
Mon 03:04:13 PM 35.2950 -84.0425 196° South 429 494 38,000  Level FlightAware ADS-B (KDZJ)
Mon 03:05:10 PM 35.1830 -84.0694 191° South 425 489 38,000  Level FlightAware ADS-B (KDZJ)
Mon 03:05:52 PM 35.1019 -84.0889 191° South 426 490 38,000  Level FlightAware ADS-B (KDZJ)
Mon 03:06:32 PM 35.0215 -84.1081 191° South 426 490 38,000  Level FlightAware ADS-B (KDZJ)
Mon 03:07:13 PM 34.9408 -84.1272 191° South 425 489 38,000  Level FlightAware ADS-B (KDZJ)
Mon 03:07:51 PM 34.8666 -84.1450 191° South 425 489 38,000  Level FlightAware ADS-B (KDZJ)
Mon 03:08:23 PM 34.8036 -84.1600 191° South 426 490 38,000  Level FlightAware ADS-B (KDZJ)
Mon 03:09:14 PM 34.7049 -84.1834 191° South 428 493 38,000  Level FlightAware ADS-B (KDZJ)
Mon 03:09:53 PM 34.6252 -84.2021 191° South 429 494 38,000  Level FlightAware ADS-B (KDZJ)
Mon 03:10:27 PM 34.5587 -84.2179 191° South 428 493 38,000  Level FlightAware ADS-B (KDZJ)
Mon 03:11:14 PM 34.4653 -84.2401 191° South 429 494 38,000  Level FlightAware ADS-B (KDZJ)
Mon 03:11:55 PM 34.3847 -84.2591 191° South 429 494 38,000  Level FlightAware ADS-B (KDZJ)
Mon 03:12:34 PM 34.3058 -84.2775 191° South 430 495 38,000  Level FlightAware ADS-B (KDZJ)
Mon 03:13:15 PM 34.2255 -84.2963 191° South 430 495 38,000  Level FlightAware ADS-B (KDZJ)
Mon 03:13:54 PM 34.1465 -84.3148 191° South 439 505 38,000  Level FlightAware ADS-B (KDZJ)
Mon 03:14:35 PM 34.0652 -84.3339 191° South 440 506 38,000  Level FlightAware ADS-B (KDZJ)
Mon 03:15:15 PM 33.9853 -84.3525 191° South 440 506 38,000  Level FlightAware ADS-B (KDZJ)
Mon 03:15:54 PM 34.0131 -84.3469 191° South 444 511 38,000  Level Atlanta Center
Mon 03:16:54 PM 33.8939 -84.3742 191° South 444 511 38,000  Level Atlanta Center
Mon 03:17:54 PM 33.7728 -84.4036 191° South 449 517 38,000 -100 Level Atlanta Center
Mon 03:18:54 PM 33.6456 -84.4306 190° South 453 521 37,800 -300 Descending Atlanta Center
Mon 03:19:54 PM 33.5369 -84.4350 182° South 453 521 37,400 -267 Descending Atlanta Center
Mon 03:21:54 PM 33.2739 -84.4314 178° South 464 534 37,000 -133 Descending Atlanta Center
Mon 03:22:54 PM 33.1467 -84.4283 179° South 464 534 37,000  Level Atlanta Center
Mon 03:23:54 PM 33.0192 -84.4278 180° South 464 534 37,000  Level Atlanta Center
Mon 03:24:53 PM 32.8856 -84.4247 179° South 464 534 37,000  Level Atlanta Center
Mon 03:25:54 PM 32.7436 -84.4217 179° South 464 534 37,000  Level Atlanta Center
Mon 03:26:53 PM 32.6144 -84.4186 179° South 464 534 37,000  Level Atlanta Center
Mon 03:27:54 PM 32.4850 -84.4106 177° South 464 534 37,000  Level Atlanta Center
Mon 03:28:54 PM 32.3786 -84.4078 179° South 469 540 37,000  Level Atlanta Center
Mon 03:29:53 PM 32.2386 -84.4047 179° South 469 540 37,000  Level Atlanta Center
Mon 03:30:54 PM 32.1033 -84.4033 180° South 473 544 37,000  Level Jacksonville Center
Mon 03:31:54 PM 31.9758 -84.4014 179° South 473 544 37,000  Level Jacksonville Center
Mon 03:32:53 PM 31.8403 -84.3989 179° South 473 544 37,000  Level Jacksonville Center
Mon 03:33:53 PM 31.7086 -84.3969 179° South 473 544 37,000  Level Jacksonville Center
Mon 03:34:54 PM 31.5772 -84.3922 178° South 479 551 37,000  Level Jacksonville Center
Mon 03:40:00 PM 30.8928 -84.3805 178° South 474 545 37,000  Level FlightAware ADS-B (KONZ)
Mon 03:40:40 PM 30.7987 -84.3787 179° South 474 545 37,000  Level FlightAware ADS-B (KONZ)
Mon 03:41:22 PM 30.7059 -84.3753 178° South 482 555 37,000  Level FlightAware ADS-B (KONZ)
Mon 03:42:03 PM 30.6151 -84.3603 172° South 497 572 37,000  Level FlightAware ADS-B (KONZ)
Mon 03:42:41 PM 30.5378 -84.3374 166° South 509 586 37,000  Level FlightAware ADS-B (KONZ)
Mon 03:43:21 PM 30.4503 -84.2993 159° South 523 602 37,000  Level FlightAware ADS-B (KONZ)
Mon 03:44:00 PM 30.3669 -84.2492 153° Southeast 530 610 37,000  Level FlightAware ADS-B (KONZ)
Mon 03:44:38 PM 30.2743 -84.1888 151° Southeast 525 604 37,000  Level FlightAware ADS-B (KONZ)
Mon 03:45:22 PM 30.1891 -84.1334 151° Southeast 524 603 37,000  Level FlightAware ADS-B (KONZ)
Mon 03:46:03 PM 30.0958 -84.0728 151° Southeast 524 603 37,000  Level FlightAware ADS-B (KONZ)
Mon 03:46:38 PM 30.0281 -84.0288 151° Southeast 526 605 37,000  Level FlightAware ADS-B (KONZ)
Mon 03:47:22 PM 29.9356 -83.9688 151° Southeast 525 604 37,000  Level FlightAware ADS-B (KONZ)
Mon 03:48:16 PM 29.9010 -83.9463 151° Southeast 523 602 37,000  Level FlightAware ADS-B (KONZ)
Mon 03:48:54 PM 29.7431 -83.8447 151° Southeast 522 601 37,000  Level Jacksonville Center
Mon 03:49:54 PM 29.6142 -83.7644 152° Southeast 522 601 37,000  Level Jacksonville Center
Mon 03:50:54 PM 29.4875 -83.6847 151° Southeast 522 601 37,000  Level Jacksonville Center
Mon 03:51:54 PM 29.3586 -83.6025 151° Southeast 522 601 37,000 -50 Level Jacksonville Center
Mon 03:52:54 PM 29.2336 -83.5208 150° Southeast 522 601 36,900  Descending Jacksonville Center
Mon 03:53:54 PM 29.1089 -83.4392 150° Southeast 522 601 37,000 50 Climbing Jacksonville Center
Mon 03:54:54 PM 28.9922 -83.3650 151° Southeast 522 601 37,000  Level Jacksonville Center
Mon 04:00:52 PM 28.2063 -82.9845 151° Southeast 498 573 37,000  Level FlightAware ADS-B
Mon 04:01:53 PM 28.0752 -82.9273 159° South 494 568 37,000  Level FlightAware ADS-B
Mon 04:03:12 PM 27.9416 -82.8690 159° South 496 571 37,000  Level FlightAware ADS-B
Mon 04:04:52 PM 27.6900 -82.7599 159° South 497 572 37,000  Level FlightAware ADS-B
Mon 04:05:31 PM 27.6061 -82.7236 159° South 497 572 37,000  Level FlightAware ADS-B
Mon 04:06:01 PM 27.5414 -82.6956 159° South 496 571 37,000  Level FlightAware ADS-B
Mon 04:10:11 PM 27.0103 -82.6429 175° South 457 526 37,000  Level FlightAware ADS-B
Mon 04:11:27 PM 26.8499 -82.6361 178° South 456 525 37,000  Level FlightAware ADS-B
Mon 04:13:09 PM 26.6344 -82.6271 178° South 458 527 37,000  Level FlightAware ADS-B
Mon 04:13:52 PM 26.5412 -82.6231 178° South 460 529 37,000  Level FlightAware ADS-B
Mon 04:14:33 PM 26.4537 -82.6195 178° South 461 531 37,000  Level FlightAware ADS-B
Mon 04:15:13 PM 26.3695 -82.6159 178° South 460 529 37,000  Level FlightAware ADS-B
Mon 04:15:53 PM 26.2821 -82.6123 178° South 460 529 37,000  Level FlightAware ADS-B
Mon 04:17:32 PM 26.0720 -82.6035 178° South 457 526 37,000  Level FlightAware ADS-B
Mon 04:18:13 PM 26.0100 -82.6009 178° South 459 528 37,000  Level FlightAware ADS-B
Mon 04:18:53 PM 25.9010 -82.5964 178° South 460 529 37,000  Level FlightAware ADS-B
Mon 04:19:33 PM 25.8158 -82.5929 178° South 461 531 37,000  Level FlightAware ADS-B
Mon 04:20:12 PM 25.7371 -82.5896 178° South 462 532 37,000  Level FlightAware ADS-B
Mon 04:20:52 PM 25.6469 -82.5859 178° South 463 533 37,000  Level FlightAware ADS-B
Mon 04:21:32 PM 25.5589 -82.5822 178° South 464 534 37,000 -240 Level FlightAware ADS-B
Mon 04:22:32 PM 25.4302 -82.5770 178° South 464 534 36,600 -694 Descending FlightAware ADS-B
Mon 04:23:33 PM 25.2996 -82.5716 178° South 461 531 35,600 -914 Descending FlightAware ADS-B
Mon 04:24:17 PM 25.2278 -82.5703 178° South 460 529 35,000 -923 Descending Miami Center
Mon 04:25:17 PM 25.0986 -82.5664 178° South 460 529 34,000 -1,000 Descending Miami Center
Mon 04:26:17 PM 24.9694 -82.5606 178° South 460 529 33,000 -1,000 Descending Miami Center
Mon 04:27:17 PM 24.8422 -82.5569 179° South 460 529 32,000 -1,000 Descending Miami Center
Mon 04:28:17 PM 24.7172 -82.5511 178° South 460 529 31,000 -1,000 Descending Miami Center
Mon 04:29:17 PM 24.5919 -82.5453 178° South 455 524 30,000 -1,100 Descending Miami Center
Mon 04:30:17 PM 24.4608 -82.5394 178° South 461 531 28,800 -1,250 Descending Miami Center
Mon 04:31:17 PM 24.3378 -82.5361 179° South 461 531 27,500 -1,550 Descending Miami Center
Mon 04:32:17 PM 24.2211 -82.5308 178° South 449 517 25,700 -1,900 Descending Miami Center
Mon 04:33:17 PM 24.1022 -82.5253 178° South 435 501 23,700 -1,700 Descending Miami Center
Mon 04:34:17 PM 23.9833 -82.5222 179° South 435 501 22,300 -1,600 Descending Miami Center
Mon 04:35:17 PM 23.8786 -82.5311 184° South 410 472 20,500 -2,045 Descending Miami Center
Mon 04:36:29 PM 23.7758 -82.5447 187° South 390 449 17,800 -2,250 Descending Miami Center
Mon 04:38:00 PM 23.6018 -82.4669 175° South  Level FlightAware Approximate
Mon 04:45:00 PM 22.9891 -82.4091 180° South  Level Estimated
Mon 04:46:00 PM 22.9891 -82.4091 180° South  Level Estimated
Mon 04:47:00 PM 22.9891 -82.4091 180° South  Level Estimated
Mon 04:48:00 PM 22.9891 -82.4091 180° South  Level Estimated
Mon 04:49:00 PM 22.9891 -82.4091 180° South  Level Estimated
Mon 04:50:00 PM 22.9891 -82.4091 180° South  Level Estimated
Mon 04:51:00 PM 22.9891 -82.4091 180° South  Level Estimated
Mon 04:52:00 PM 22.9891 -82.4091 180° South  Level Estimated
Mon 04:53:00 PM 22.9891 -82.4091 180° South  Level Estimated
Mon 04:54:00 PM 22.9891 -82.4091 180° South  Level Estimated
Mon 04:55:00 PM 22.9891 -82.4091 180° South  Level Estimated
Mon 04:56:00 PM 22.9891 -82.4091 180° South  Level Estimated
Mon 04:57:00 PM 22.9891 -82.4091 180° South  Level Estimated
Mon 04:58:00 PM 22.9891 -82.4091 180° South  Level Estimated
Mon 04:59:00 PM 22.9891 -82.4091 180° South  Level Estimated
Mon 05:00:00 PM 22.9891 -82.4091 180° South  Level Estimated
Mon 05:01:00 PM 22.9891 -82.4091 180° South  Level Estimated
Mon 05:02:00 PM 22.9891 -82.4091 180° South  Level Estimated
Mon 05:03:00 PM 22.9891 -82.4091 180° South  Level Estimated
Mon 05:04:00 PM 22.9891 -82.4091 180° South  Level Estimated
Mon 05:05:00 PM 22.9891 -82.4091 180° South  Level Estimated
Mon 05:06:00 PM 22.9891 -82.4091 180° South  Level Estimated

Login

Don't have an account? Register now (free) for customized features, flight alerts, and more!